Flag for Germany Weather past 2 weeks in Geislingen an der Steige, Baden-Württemberg, Germany

Now
56 °F

Overcast.


Feels Like: 56 °F
Forecast: 49 / 66 °F
Wind: 3 mph from East

Location: Stoetten

Current Time: May 24, 2015 at 6:15:40 PM

Latest Report: May 24, 2015 at 5:00 PM


Visibility: 47 mi

Pressure: 30.06 "Hg

Humidity: 73%

Dew point: 47 °F

Location of Geislingen an der SteigeLocation

Historic Weather in Geislingen an der Steige — Graph

°F

Geislingen an der Steige temperature yesterday

Maximum temperature yesterday: 60 °F (at 4:00 PM)
Minimum temperature yesterday: 45 °F (at 4:00 AM)
Average temperature yesterday: 53 °F

Past Weeks' High & Low Weather Summary

 TemperatureHumidityPressure
High77 °F (May 12, 4:00 PM)100% (May 14, 3:00 AM)30.35 "Hg (May 14, 3:00 AM)
Low40 °F (May 20, 1:00 PM)36% (May 12, 3:00 PM)29.70 "Hg (May 18, 8:00 PM)
Average54 °F73%30.08 "Hg
* Reported May 9 5:00 PM — May 24 5:00 PM, Geislingen an der Steige, Weather by CustomWeather, © 2015

Note: Actual official high and low records may vary slightly from our data, if they occured in-between our weather recording intervals... More about our weather records

Advertising

Geislingen an der Steige weather history for previous 24 hours

 ConditionsComfort  
Time TempWeatherWind HumidityBarometerVisibility
5:00 PM
Sun, May 24
56 °FOvercast.3 mph73%30.06 "Hg47 mi
4:00 PM56 °FOvercast.3 mph71%30.07 "Hg43 mi
3:00 PM56 °FOvercast.5 mph69%30.07 "Hg43 mi
2:00 PM57 °FOvercast.3 mph62%30.07 "Hg34 mi
1:00 PM58 °FPartly sunny.3 mph64%30.06 "Hg31 mi
12:00 PM59 °FPartly sunny.2 mph61%30.06 "Hg22 mi
11:00 AM57 °FPartly sunny.3 mph71%30.07 "Hg19 mi
10:00 AM55 °FPartly sunny.2 mph70%30.07 "Hg16 mi
9:00 AM55 °FPartly sunny.5 mph74%30.06 "Hg14 mi
8:00 AM52 °FOvercast.3 mph80%30.07 "Hg16 mi
7:00 AM50 °FOvercast.3 mph81%30.07 "Hg16 mi
6:00 AM51 °FOvercast.3 mph80%30.06 "Hg14 mi
5:00 AM50 °FOvercast.3 mph81%30.06 "Hg7 mi
4:00 AM52 °FOvercast.5 mph75%30.06 "Hg10 mi
3:00 AM52 °FOvercast.5 mph72%30.06 "Hg12 mi
2:00 AM52 °FOvercast.3 mph73%30.07 "Hg18 mi
1:00 AM52 °FOvercast.3 mph72%30.07 "Hg22 mi
12:00 AM53 °FOvercast.5 mph66%30.07 "Hg22 mi
11:00 PM
Sat, May 23
54 °FOvercast.5 mph63%30.06 "Hg25 mi
10:00 PM54 °FOvercast.6 mph61%30.06 "Hg25 mi
9:00 PM55 °FOvercast.5 mph58%30.05 "Hg43 mi
8:00 PM56 °FOvercast.5 mph58%30.04 "Hg47 mi
7:00 PM57 °FOvercast.6 mph55%30.03 "Hg47 mi
6:00 PM57 °FOvercast.6 mph56%30.03 "Hg22 mi
Weather by CustomWeather, © 2015

See weather overviewHow to use our weather pages